period_start,C,m1,H,J0,J1,J2,J3,J4,J5,JA,JB,JC,JD,JJ,JK,JN,#
2017-10-07 00:00:15,0.02,0.80,0.00,17.90,21.87,24.95,14.13,46.21,1010.27,2052.03,3176.54,2909.80,3323.99,600.15,602.90,52.89,0000 0000 0000 0000 000000
2017-10-07 00:05:16,0.02,0.81,0.00,17.85,21.84,24.97,14.15,46.30,1010.15,2052.06,3176.01,2909.24,3323.70,600.02,602.78,52.94,0000 0000 0000 0000 000000
2017-10-07 00:10:17,0.01,0.81,0.00,17.80,21.82,24.94,14.09,46.22,1010.07,2052.12,3175.89,2909.02,3323.07,599.86,602.68,52.99,0000 0000 0000 0000 000000
2017-10-07 00:15:19,0.07,0.81,0.00,17.80,21.79,24.88,14.18,46.41,1010.09,2052.66,3175.36,2909.00,3322.99,600.12,602.87,53.04,0000 0000 0000 0000 000000
2017-10-07 00:20:20,0.02,0.81,0.00,17.80,21.77,24.87,14.08,46.29,1010.10,2052.92,3175.01,2908.99,3322.84,600.09,602.66,53.09,0000 0000 0000 0000 000000
2017-10-07 00:25:22,0.01,0.81,0.00,17.76,21.74,24.86,14.04,46.28,1009.90,2052.98,3174.95,2908.98,3322.24,599.80,602.55,53.14,0000 0000 0000 0000 000000
2017-10-07 00:30:23,0.01,0.81,0.00,17.76,21.72,24.88,14.08,46.14,1009.79,2052.99,3174.37,2908.98,3322.01,599.97,602.65,53.19,0000 0000 0000 0000 000000
2017-10-07 00:35:24,0.00,0.81,0.00,17.75,21.69,24.87,14.09,46.00,1009.75,2052.99,3174.00,2908.90,3321.99,599.74,602.38,53.24,0000 0000 0000 0000 000000
2017-10-07 00:40:26,0.04,0.82,0.00,17.77,21.67,24.85,14.21,46.04,1009.59,2052.99,3173.58,2908.43,3321.52,600.17,602.74,53.30,0000 0000 0000 0000 000000
2017-10-07 00:45:27,0.01,0.82,0.00,17.79,21.64,24.82,14.19,45.98,1009.46,2053.01,3173.02,2908.03,3321.01,600.22,602.60,53.35,0000 0000 0000 0000 000000
2017-10-07 00:50:28,0.01,0.82,0.00,17.82,21.62,24.81,14.15,46.10,1009.29,2053.06,3172.82,2908.00,3320.83,600.01,602.32,53.40,0000 0000 0000 0000 000000
2017-10-07 00:55:29,0.06,0.82,0.00,17.85,21.60,24.83,14.14,46.08,1009.05,2053.45,3172.08,2907.98,3320.08,600.09,602.11,53.45,0000 0000 0000 0000 000000
2017-10-07 01:00:30,0.07,0.82,0.00,17.83,21.59,24.82,14.14,46.17,1008.80,2053.81,3171.60,2907.45,3319.72,600.17,602.22,53.50,0000 0000 0000 0000 000000
2017-10-07 01:05:32,0.02,0.83,0.00,17.83,21.57,24.80,14.09,46.17,1008.44,2053.96,3170.94,2907.01,3318.97,599.99,601.78,53.55,0000 0000 0000 0000 000000
2017-10-07 01:10:33,0.05,0.83,0.00,17.78,21.57,24.80,14.00,46.30,1008.33,2053.96,3170.10,2906.43,3318.12,599.70,601.42,53.60,0000 0000 0000 0000 000000
2017-10-07 01:15:34,0.03,0.83,0.00,17.76,21.54,24.80,14.08,46.36,1008.26,2053.99,3169.45,2906.00,3317.35,599.89,601.74,53.65,0000 0000 0000 0000 000000
2017-10-07 01:20:35,0.05,0.83,0.00,17.73,21.54,24.79,14.17,46.52,1008.13,2053.99,3168.59,2905.24,3316.40,599.81,601.63,53.70,0000 0000 0000 0000 000000
2017-10-07 01:25:37,0.06,0.84,0.00,17.67,21.52,24.77,14.08,46.56,1008.07,2053.99,3167.47,2904.39,3315.19,600.16,602.05,53.75,0000 0000 0000 0000 000000
2017-10-07 01:30:38,0.07,0.84,0.00,17.63,21.50,24.73,14.10,46.73,1007.85,2053.99,3166.24,2903.21,3313.54,599.77,601.63,53.80,0000 0000 0000 0000 000000
2017-10-07 01:35:39,0.06,0.84,0.00,17.58,21.49,24.67,14.15,46.64,1007.83,2054.00,3165.13,2902.10,3312.31,599.98,601.92,53.85,0000 0000 0000 0000 000000
2017-10-07 01:40:40,0.06,0.85,0.00,17.52,21.47,24.59,14.16,46.82,1007.83,2054.02,3164.10,2901.18,3311.08,599.95,602.09,53.90,0000 0000 0000 0000 000000
2017-10-07 01:45:42,0.07,0.85,0.00,17.45,21.44,24.52,14.14,46.92,1007.77,2054.06,3162.99,2900.26,3309.72,600.25,602.44,53.95,0000 0000 0000 0000 000000
2017-10-07 01:50:43,0.09,0.86,0.00,17.39,21.41,24.45,14.06,46.67,1007.45,2054.28,3161.81,2899.26,3308.47,599.89,602.03,54.00,0000 0000 0000 0000 000000
2017-10-07 01:55:45,0.06,0.86,0.00,17.34,21.38,24.37,14.14,46.63,1007.35,2054.54,3161.01,2898.92,3307.65,600.37,602.47,54.05,0000 0000 0000 0000 000000
2017-10-07 02:00:46,0.07,0.86,0.00,17.29,21.36,24.29,14.14,46.65,1007.34,2054.94,3160.35,2898.26,3307.01,600.37,602.62,54.10,0000 0000 0000 0000 000000
2017-10-07 02:05:47,0.03,0.86,0.00,17.25,21.32,24.29,14.11,46.77,1007.28,2054.98,3159.77,2897.93,3306.25,600.07,602.34,54.15,0000 0000 0000 0000 000000
2017-10-07 02:10:48,0.04,0.87,0.00,17.20,21.29,24.22,14.14,46.63,1007.31,2054.99,3159.00,2897.08,3305.19,600.46,602.86,54.20,0000 0000 0000 0000 000000
2017-10-07 02:15:50,0.03,0.87,0.00,17.15,21.26,24.18,14.10,46.55,1007.25,2054.99,3158.22,2896.83,3304.78,599.99,602.51,54.26,0000 0000 0000 0000 000000
2017-10-07 02:20:51,0.03,0.87,0.00,17.15,21.22,24.16,14.10,46.67,1007.11,2055.00,3157.83,2896.10,3304.06,599.91,602.18,54.31,0000 0000 0000 0000 000000
2017-10-07 02:25:52,0.04,0.87,0.00,17.08,21.19,24.15,14.16,46.89,1006.90,2055.06,3156.97,2895.86,3303.49,600.14,602.60,54.36,0000 0000 0000 0000 000000
2017-10-07 02:30:53,0.11,0.88,0.00,17.04,21.15,24.08,14.05,46.80,1006.96,2055.44,3156.11,2895.05,3302.20,599.54,601.95,54.41,0000 0000 0000 0000 000000
2017-10-07 02:35:54,0.03,0.88,0.00,17.04,21.12,24.05,14.12,46.70,1007.18,2055.91,3155.87,2894.88,3301.98,599.88,602.42,54.46,0000 0000 0000 0000 000000
2017-10-07 02:40:56,0.05,0.88,0.00,16.96,21.08,24.00,14.09,46.42,1007.33,2055.96,3155.08,2894.16,3301.23,599.55,602.46,54.51,0000 0000 0000 0000 000000
2017-10-07 02:45:57,0.01,0.88,0.00,16.96,21.04,23.98,14.16,46.54,1007.27,2055.97,3154.84,2894.00,3300.96,600.31,603.26,54.56,0000 0000 0000 0000 000000
2017-10-07 02:50:59,0.04,0.89,0.00,16.97,21.01,24.00,14.19,46.30,1007.21,2055.99,3154.06,2893.76,3300.17,600.61,603.25,54.61,0000 0000 0000 0000 000000
2017-10-07 02:56:00,0.02,0.89,0.00,16.93,20.98,24.00,14.15,46.52,1006.94,2056.00,3153.76,2893.16,3299.90,599.96,602.67,54.66,0000 0000 0000 0000 000000
2017-10-07 03:01:01,0.02,0.89,0.00,16.92,20.94,23.97,14.16,46.42,1006.86,2056.01,3153.04,2893.00,3299.10,600.12,602.85,54.71,0000 0000 0000 0000 000000
2017-10-07 03:06:02,0.05,0.89,0.00,16.93,20.91,23.94,14.16,46.42,1006.95,2056.09,3152.43,2892.62,3298.60,600.32,602.94,54.76,0000 0000 0000 0000 000000
2017-10-07 03:11:03,0.07,0.89,0.00,16.90,20.88,23.98,14.11,46.14,1007.30,2056.66,3152.00,2892.07,3298.02,599.68,602.81,54.81,0000 0000 0000 0000 000000
2017-10-07 03:16:05,0.04,0.90,0.00,16.93,20.85,23.98,14.12,46.16,1007.54,2056.93,3151.48,2891.99,3297.57,599.87,602.88,54.86,0000 0000 0000 0000 000000
2017-10-07 03:21:06,0.02,0.90,0.00,16.94,20.83,23.98,14.15,46.38,1007.82,2056.97,3150.94,2891.67,3296.99,599.89,603.10,54.91,0000 0000 0000 0000 000000
2017-10-07 03:26:08,0.04,0.90,0.00,16.94,20.80,23.98,14.15,46.49,1007.83,2056.98,3150.14,2891.03,3296.25,599.99,603.26,54.96,0000 0000 0000 0000 000000
2017-10-07 03:31:09,0.00,0.90,0.00,16.99,20.78,23.96,14.19,46.49,1007.83,2056.99,3149.96,2890.99,3295.99,600.24,603.31,55.01,0000 0000 0000 0000 000000
2017-10-07 03:36:10,0.02,0.90,0.00,17.00,20.77,23.95,14.14,46.65,1007.83,2056.99,3149.36,2890.86,3295.58,599.83,602.85,55.06,0000 0000 0000 0000 000000
2017-10-07 03:41:12,0.03,0.90,0.00,17.01,20.74,23.95,14.12,46.53,1007.83,2057.00,3148.96,2890.09,3294.99,600.06,603.03,55.11,0000 0000 0000 0000 000000
2017-10-07 03:46:13,0.02,0.91,0.00,17.04,20.73,23.97,14.09,46.38,1007.83,2057.00,3148.15,2889.99,3294.23,599.86,602.92,55.16,0000 0000 0000 0000 000000
2017-10-07 03:51:14,0.02,0.91,0.00,17.06,20.72,23.96,14.12,46.40,1007.83,2057.02,3147.88,2889.61,3293.93,599.93,602.92,55.21,0000 0000 0000 0000 000000
2017-10-07 03:56:15,0.04,0.91,0.00,17.05,20.71,23.95,14.03,46.33,1007.83,2057.05,3147.07,2889.02,3293.14,599.89,602.80,55.27,0000 0000 0000 0000 000000
2017-10-07 04:01:16,0.04,0.91,0.00,17.11,20.70,23.93,14.15,46.29,1007.83,2057.18,3146.53,2888.99,3292.75,600.47,603.48,55.32,0000 0000 0000 0000 000000
2017-10-07 04:06:17,0.07,0.91,0.00,17.11,20.69,23.92,14.08,46.28,1007.83,2057.50,3145.88,2888.45,3291.93,599.49,602.34,55.37,0000 0000 0000 0000 000000
2017-10-07 04:11:18,0.05,0.92,0.00,17.12,20.69,23.95,14.14,46.33,1007.83,2057.58,3145.03,2887.79,3291.02,600.13,603.03,55.42,0000 0000 0000 0000 000000
2017-10-07 04:16:20,0.04,0.92,0.00,17.21,20.69,23.91,14.11,46.02,1007.81,2057.48,3144.16,2887.03,3290.11,599.80,602.47,55.47,0000 0000 0000 0000 000000
2017-10-07 04:21:21,0.07,0.92,0.00,17.21,20.69,23.90,14.12,46.16,1007.82,2057.68,3143.55,2886.42,3289.23,600.07,602.62,55.52,0000 0000 0000 0000 000000
2017-10-07 04:26:22,0.03,0.92,0.00,17.22,20.69,23.89,14.00,46.08,1007.72,2057.72,3142.74,2885.92,3288.44,599.70,602.29,55.57,0000 0000 0000 0000 000000
2017-10-07 04:31:23,0.02,0.93,0.00,17.29,20.69,23.86,14.09,46.10,1007.49,2057.53,3141.93,2885.11,3287.56,600.01,602.34,55.62,0000 0000 0000 0000 000000
2017-10-07 04:36:25,0.04,0.93,0.00,17.25,20.69,23.88,14.06,46.23,1007.37,2057.47,3141.14,2884.80,3286.76,599.90,602.20,55.67,0000 0000 0000 0000 000000
2017-10-07 04:41:26,0.05,0.93,0.00,17.27,20.69,23.95,14.02,46.24,1007.40,2057.66,3140.56,2884.06,3286.01,599.36,601.70,55.72,0000 0000 0000 0000 000000
2017-10-07 04:46:27,0.02,0.93,0.00,17.30,20.70,23.92,14.12,46.15,1007.37,2057.47,3139.82,2883.65,3285.17,600.28,602.55,55.77,0000 0000 0000 0000 000000
2017-10-07 04:51:29,0.02,0.93,0.00,17.29,20.72,23.94,14.10,46.39,1007.34,2057.21,3139.02,2883.00,3284.27,600.19,602.31,55.82,0000 0000 0000 0000 000000
2017-10-07 04:56:30,0.05,0.94,0.00,17.27,20.72,23.99,14.07,46.38,1007.33,2057.15,3138.16,2882.26,3283.42,599.91,602.25,55.87,0000 0000 0000 0000 000000
2017-10-07 05:01:31,0.04,0.94,0.00,17.32,20.72,23.99,14.08,46.19,1007.21,2057.08,3137.41,2881.73,3282.53,600.28,602.12,55.92,0000 0000 0000 0000 000000
2017-10-07 05:06:32,0.03,0.94,0.00,17.26,20.73,24.04,14.16,46.31,1007.31,2057.06,3136.71,2881.03,3281.73,600.37,602.59,55.97,0000 0000 0000 0000 000000
2017-10-07 05:11:33,0.03,0.94,0.00,17.25,20.74,24.08,14.16,46.24,1007.35,2057.05,3135.98,2880.62,3280.98,600.26,602.62,56.02,0000 0000 0000 0000 000000
2017-10-07 05:16:34,0.04,0.94,0.00,17.29,20.74,24.08,14.08,46.36,1007.36,2057.08,3135.13,2880.02,3280.14,599.93,602.13,56.07,0000 0000 0000 0000 000000
2017-10-07 05:21:36,0.04,0.95,0.00,17.24,20.74,24.10,14.06,46.48,1007.40,2057.02,3134.68,2879.49,3279.34,599.99,602.28,56.12,0000 0000 0000 0000 000000
2017-10-07 05:26:37,0.02,0.95,0.00,17.28,20.74,24.04,14.08,46.29,1007.37,2057.04,3133.98,2879.02,3278.74,600.12,602.32,56.17,0000 0000 0000 0000 000000
2017-10-07 05:31:38,0.05,0.95,0.00,17.29,20.75,24.06,14.06,46.16,1007.53,2057.04,3133.11,2878.62,3277.83,599.61,601.86,56.22,0000 0000 0000 0000 000000
2017-10-07 05:36:39,0.03,0.95,0.00,17.29,20.75,24.06,14.12,46.30,1007.82,2057.01,3132.39,2878.01,3277.03,599.94,602.40,56.28,0000 0000 0000 0000 000000
2017-10-07 05:41:40,0.03,0.95,0.00,17.29,20.76,24.07,14.10,46.34,1007.87,2057.03,3131.88,2877.68,3276.40,600.02,602.62,56.33,0000 0000 0000 0000 000000
2017-10-07 05:46:42,0.03,0.96,0.00,17.33,20.77,24.06,14.14,46.27,1007.97,2057.00,3131.05,2877.02,3275.77,600.12,602.68,56.38,0000 0000 0000 0000 000000
2017-10-07 05:51:43,0.04,0.96,0.00,17.30,20.77,24.05,14.11,46.26,1008.08,2057.00,3130.32,2876.67,3275.02,599.97,602.60,56.43,0000 0000 0000 0000 000000
2017-10-07 05:56:44,0.02,0.96,0.00,17.32,20.77,24.03,14.12,46.27,1008.16,2057.00,3129.98,2876.04,3274.44,599.91,602.63,56.48,0000 0000 0000 0000 000000
2017-10-07 06:01:46,0.06,0.96,0.00,17.33,20.78,24.04,14.12,46.18,1008.02,2057.00,3129.03,2875.40,3273.39,600.21,602.77,56.53,0000 0000 0000 0000 000000
2017-10-07 06:06:47,0.04,0.96,0.00,17.34,20.79,24.06,14.14,46.13,1007.86,2057.00,3128.05,2874.71,3272.41,600.32,602.76,56.58,0000 0000 0000 0000 000000
2017-10-07 06:11:48,0.03,0.97,0.00,17.32,20.79,24.11,14.13,46.21,1007.83,2057.00,3127.37,2874.04,3271.76,600.50,602.92,56.63,0000 0000 0000 0000 000000
2017-10-07 06:16:49,0.02,0.97,0.00,17.35,20.79,24.10,14.01,46.16,1007.83,2057.00,3126.89,2873.84,3271.04,599.71,602.15,56.68,0000 0000 0000 0000 000000
2017-10-07 06:21:50,0.05,0.97,0.00,17.34,20.80,24.11,14.13,46.23,1007.83,2057.00,3126.07,2873.07,3270.32,600.09,602.49,56.73,0000 0000 0000 0000 000000
2017-10-07 06:26:52,0.05,0.97,0.00,17.31,20.81,24.11,14.16,46.16,1007.78,2057.00,3125.24,2872.58,3269.63,600.34,602.84,56.78,0000 0000 0000 0000 000000
2017-10-07 06:31:53,0.03,0.97,0.00,17.35,20.82,24.14,14.10,46.23,1007.42,2057.00,3124.40,2872.01,3268.95,599.54,601.72,56.83,0000 0000 0000 0000 000000
2017-10-07 06:36:54,0.03,0.98,0.00,17.31,20.82,24.14,14.05,46.08,1007.40,2056.99,3123.85,2871.70,3268.14,599.54,601.71,56.88,0000 0000 0000 0000 000000
2017-10-07 06:41:55,0.03,0.98,0.00,17.31,20.82,24.13,14.06,46.17,1007.36,2056.99,3123.09,2871.04,3267.78,600.18,602.43,56.93,0000 0000 0000 0000 000000
2017-10-07 06:46:57,0.03,0.98,0.00,17.31,20.82,24.14,14.03,46.58,1007.36,2056.99,3122.80,2870.74,3266.99,599.77,602.09,56.98,0000 0000 0000 0000 000000
2017-10-07 06:51:58,0.03,0.98,0.00,17.29,20.82,24.16,14.10,46.46,1007.51,2056.99,3122.04,2870.02,3266.14,599.89,602.21,57.03,0000 0000 0000 0000 000000
2017-10-07 06:56:59,0.03,0.98,0.00,17.27,20.82,24.16,14.15,46.37,1007.80,2056.98,3121.25,2869.83,3265.75,600.09,602.52,57.08,0000 0000 0000 0000 000000
2017-10-07 07:02:00,0.03,0.98,0.00,17.26,20.82,24.16,14.07,46.47,1007.71,2056.98,3120.97,2869.11,3265.06,599.35,601.87,57.13,0000 0000 0000 0000 000000
2017-10-07 07:07:01,0.01,0.99,0.00,17.25,20.82,24.15,14.10,46.37,1007.41,2056.97,3120.32,2869.00,3264.83,600.07,602.37,57.18,0000 0000 0000 0000 000000
2017-10-07 07:12:02,0.02,0.99,0.00,17.21,20.82,24.16,14.12,46.25,1007.34,2056.98,3119.95,2868.74,3264.08,600.20,602.48,57.23,0000 0000 0000 0000 000000
2017-10-07 07:17:04,0.03,0.99,0.00,17.20,20.82,24.16,14.14,46.33,1007.34,2056.98,3119.15,2868.07,3263.92,600.06,602.53,57.29,0000 0000 0000 0000 000000
2017-10-07 07:22:05,0.01,0.99,0.00,17.19,20.82,24.13,14.08,46.33,1007.34,2056.98,3118.92,2868.00,3263.16,599.61,602.01,57.34,0000 0000 0000 0000 000000
2017-10-07 07:27:06,0.02,0.99,0.00,17.17,20.80,24.11,14.08,46.13,1007.44,2056.99,3118.17,2867.86,3262.99,599.70,602.22,57.39,0000 0000 0000 0000 000000
2017-10-07 07:32:08,0.04,0.99,0.00,17.18,20.79,24.12,14.15,46.04,1007.59,2056.99,3117.68,2867.11,3262.36,600.61,603.20,57.44,0000 0000 0000 0000 000000
2017-10-07 07:37:09,0.01,0.99,0.00,17.16,20.79,24.09,14.05,46.24,1007.59,2056.99,3117.02,2866.98,3261.91,599.57,602.33,57.49,0000 0000 0000 0000 000000
2017-10-07 07:42:11,0.05,1.00,0.00,17.14,20.79,24.09,14.11,46.42,1007.37,2056.99,3116.54,2866.43,3261.13,599.77,602.33,57.54,0000 0000 0000 0000 000000
2017-10-07 07:47:12,0.01,1.00,0.00,17.15,20.77,24.08,14.01,46.32,1007.59,2056.99,3115.97,2866.00,3260.73,600.02,602.72,57.59,0000 0000 0000 0000 000000
2017-10-07 07:52:13,0.04,1.00,0.00,17.10,20.77,24.09,14.08,46.09,1007.81,2056.99,3115.19,2865.64,3260.02,599.89,602.77,57.64,0000 0000 0000 0000 000000
2017-10-07 07:57:15,0.03,1.00,0.00,17.13,20.77,24.06,14.10,46.08,1007.74,2056.99,3114.77,2865.04,3259.42,600.06,602.85,57.69,0000 0000 0000 0000 000000
2017-10-07 08:02:16,0.01,1.00,0.00,17.16,20.76,24.05,14.16,46.01,1007.47,2057.00,3114.06,2864.99,3259.00,600.31,602.87,57.74,0000 0000 0000 0000 000000
2017-10-07 08:07:17,0.05,1.00,0.00,17.11,20.74,24.07,14.18,46.05,1007.43,2057.00,3113.64,2864.30,3258.38,600.13,602.87,57.79,0000 0000 0000 0000 000000
2017-10-07 08:12:19,0.01,1.01,0.00,17.16,20.74,24.06,14.13,46.14,1007.39,2057.01,3113.01,2864.00,3257.84,600.16,602.65,57.84,0000 0000 0000 0000 000000
2017-10-07 08:17:20,0.05,1.01,0.00,17.14,20.74,24.04,14.06,46.27,1007.34,2057.01,3112.24,2863.39,3257.05,600.04,602.54,57.89,0000 0000 0000 0000 000000
2017-10-07 08:22:21,0.01,1.01,0.00,17.14,20.74,24.02,14.08,46.30,1007.30,2057.02,3111.97,2863.01,3256.82,599.67,602.13,57.94,0000 0000 0000 0000 000000
2017-10-07 08:27:22,0.04,1.01,0.00,17.17,20.74,24.03,14.18,46.30,1007.08,2057.02,3111.13,2862.59,3256.05,600.46,602.80,57.99,0000 0000 0000 0000 000000
2017-10-07 08:32:23,0.02,1.01,0.00,17.15,20.74,24.06,14.08,46.29,1006.89,2057.02,3110.79,2862.03,3255.53,599.97,602.20,58.04,0000 0000 0000 0000 000000
2017-10-07 08:37:24,0.02,1.01,0.00,17.13,20.74,24.04,14.12,46.35,1006.88,2057.04,3110.05,2861.90,3254.94,600.20,602.41,58.09,0000 0000 0000 0000 000000
2017-10-07 08:42:26,0.05,1.02,0.00,17.13,20.74,24.06,14.11,46.42,1006.88,2057.03,3109.36,2861.10,3254.08,599.98,602.14,58.14,0000 0000 0000 0000 000000
2017-10-07 08:47:27,0.06,1.02,0.00,17.12,20.73,24.05,14.16,46.51,1006.85,2057.05,3108.50,2860.41,3253.11,600.63,602.86,58.20,0000 0000 0000 0000 000000
2017-10-07 08:52:28,0.08,1.02,0.00,17.11,20.72,24.03,14.21,46.52,1006.85,2057.12,3107.54,2859.40,3251.70,599.84,602.21,58.25,0000 0000 0000 0000 000000
2017-10-07 08:57:30,0.06,1.03,0.00,17.15,20.72,24.00,14.03,46.38,1006.85,2057.11,3106.42,2858.18,3250.54,599.81,602.07,58.30,0000 0000 0000 0000 000000
2017-10-07 09:02:31,0.06,1.03,0.00,17.13,20.72,24.05,14.16,46.51,1006.80,2057.11,3105.28,2857.20,3249.21,600.30,602.44,58.35,0000 0000 0000 0000 000000
2017-10-07 09:07:32,0.07,1.03,0.00,17.13,20.72,24.05,14.07,46.42,1006.80,2057.25,3104.52,2856.45,3248.27,600.00,602.27,58.40,0000 0000 0000 0000 000000
2017-10-07 09:12:33,0.03,1.04,0.00,17.14,20.72,24.04,14.12,46.40,1006.69,2057.36,3103.83,2855.98,3247.65,599.79,601.93,58.45,0000 0000 0000 0000 000000
2017-10-07 09:17:35,0.05,1.04,0.00,17.14,20.72,24.02,14.06,46.21,1006.53,2057.47,3103.02,2855.31,3246.92,599.59,601.61,58.50,0000 0000 0000 0000 000000
2017-10-07 09:22:36,0.03,1.04,0.00,17.15,20.72,24.04,14.08,46.17,1006.36,2057.46,3102.31,2854.96,3246.08,600.04,601.95,58.55,0000 0000 0000 0000 000000
2017-10-07 09:27:37,0.06,1.04,0.00,17.20,20.72,23.99,14.11,46.17,1006.31,2057.54,3101.62,2854.16,3245.30,600.14,601.87,58.60,0000 0000 0000 0000 000000
2017-10-07 09:32:38,0.03,1.04,0.00,17.13,20.72,24.01,14.07,46.25,1006.28,2057.42,3100.95,2853.66,3244.49,600.00,601.90,58.65,0000 0000 0000 0000 000000
2017-10-07 09:37:40,0.03,1.05,0.00,17.15,20.72,24.01,14.11,46.29,1006.19,2057.30,3100.12,2853.01,3243.78,599.95,601.78,58.70,0000 0000 0000 0000 000000
2017-10-07 09:42:41,0.05,1.05,0.00,17.18,20.72,24.05,14.01,46.25,1006.19,2057.43,3099.55,2852.61,3243.01,599.60,601.40,58.75,0000 0000 0000 0000 000000
2017-10-07 09:47:42,0.04,1.05,0.00,17.17,20.72,24.04,14.10,46.18,1006.37,2057.46,3098.96,2852.01,3242.16,599.98,601.79,58.80,0000 0000 0000 0000 000000
2017-10-07 09:52:43,0.04,1.05,0.00,17.17,20.72,24.04,14.08,46.23,1006.61,2057.32,3098.15,2851.41,3241.50,599.40,601.42,58.85,0000 0000 0000 0000 000000
2017-10-07 09:57:44,0.01,1.05,0.00,17.22,20.72,24.01,14.05,46.30,1006.84,2057.17,3097.62,2850.99,3240.82,599.75,601.80,58.90,0000 0000 0000 0000 000000
2017-10-07 10:02:46,0.05,1.06,0.00,17.18,20.72,24.01,14.05,46.38,1006.85,2057.28,3097.02,2850.57,3240.06,599.80,602.00,58.95,0000 0000 0000 0000 000000
2017-10-07 10:07:47,0.01,1.06,0.00,17.22,20.72,24.01,14.17,46.51,1006.85,2057.16,3096.85,2850.02,3239.86,600.22,602.19,59.00,0000 0000 0000 0000 000000
2017-10-07 10:12:49,0.02,1.06,0.00,17.21,20.72,24.06,14.15,46.62,1006.86,2057.11,3096.07,2849.95,3239.07,600.12,602.26,59.05,0000 0000 0000 0000 000000
2017-10-07 10:17:50,0.05,1.06,0.00,17.19,20.73,24.04,14.16,46.91,1006.85,2057.08,3095.47,2849.18,3238.43,600.00,602.10,59.10,0000 0000 0000 0000 000000
2017-10-07 10:22:51,0.04,1.06,0.00,17.18,20.74,24.06,14.06,46.58,1006.85,2057.09,3094.51,2848.52,3237.93,599.64,601.78,59.15,0000 0000 0000 0000 000000
2017-10-07 10:27:52,0.05,1.06,0.00,17.20,20.74,24.07,14.10,46.88,1006.89,2057.09,3093.54,2847.84,3236.98,599.79,601.96,59.20,0000 0000 0000 0000 000000
2017-10-07 10:32:53,0.04,1.07,0.00,17.15,20.74,24.05,14.06,46.60,1006.98,2057.06,3092.86,2847.07,3236.06,600.35,602.63,59.26,0000 0000 0000 0000 000000
2017-10-07 10:37:54,0.02,1.07,0.00,17.16,20.74,24.09,14.07,46.72,1007.16,2057.02,3092.05,2846.95,3235.50,599.87,602.22,59.31,0000 0000 0000 0000 000000
2017-10-07 10:42:55,0.05,1.07,0.00,17.15,20.74,24.07,14.21,46.78,1007.05,2057.03,3091.47,2846.14,3234.75,600.56,602.89,59.36,0000 0000 0000 0000 000000
2017-10-07 10:47:56,0.04,1.07,0.00,17.12,20.74,24.09,14.10,46.65,1006.94,2057.08,3090.72,2845.71,3234.01,600.04,602.38,59.41,0000 0000 0000 0000 000000
2017-10-07 10:52:57,0.04,1.07,0.00,17.11,20.74,24.09,14.14,46.44,1007.02,2057.09,3090.01,2845.07,3233.35,599.87,602.34,59.46,0000 0000 0000 0000 000000
2017-10-07 10:57:58,0.03,1.08,0.00,17.13,20.74,24.07,14.21,46.38,1007.09,2057.08,3089.20,2844.81,3232.82,600.85,603.24,59.51,0000 0000 0000 0000 000000
2017-10-07 11:03:00,0.04,1.08,0.00,17.14,20.74,24.07,14.14,46.32,1006.91,2057.19,3088.88,2844.09,3232.07,600.36,602.39,59.56,0000 0000 0000 0000 000000
2017-10-07 11:08:01,0.02,1.08,0.00,17.15,20.73,24.06,14.12,46.35,1006.85,2057.09,3088.11,2843.97,3231.55,600.03,602.37,59.61,0000 0000 0000 0000 000000
2017-10-07 11:13:02,0.04,1.08,0.00,17.17,20.72,24.04,14.04,46.21,1006.85,2057.16,3087.78,2843.44,3231.01,599.57,601.84,59.66,0000 0000 0000 0000 000000
2017-10-07 11:18:03,0.04,1.08,0.00,17.18,20.72,24.01,14.10,46.22,1006.75,2057.32,3087.07,2843.02,3230.62,600.28,602.38,59.71,0000 0000 0000 0000 000000
2017-10-07 11:23:05,0.01,1.08,0.00,17.17,20.72,24.06,14.09,46.44,1006.41,2057.28,3086.84,2842.95,3230.02,599.91,601.76,59.76,0000 0000 0000 0000 000000
2017-10-07 11:28:06,0.04,1.09,0.00,17.19,20.72,24.03,14.08,46.42,1006.36,2057.22,3086.12,2842.27,3229.72,599.93,601.82,59.81,0000 0000 0000 0000 000000
2017-10-07 11:33:07,0.04,1.09,0.00,17.14,20.72,24.06,14.11,46.46,1006.36,2057.44,3085.88,2842.00,3229.04,600.56,602.44,59.86,0000 0000 0000 0000 000000
2017-10-07 11:38:09,0.03,1.09,0.00,17.13,20.72,24.05,14.09,46.52,1006.37,2057.68,3085.14,2841.93,3228.84,599.84,601.87,59.91,0000 0000 0000 0000 000000
2017-10-07 11:43:10,0.04,1.09,0.00,17.11,20.72,24.07,14.12,46.49,1006.36,2057.71,3084.97,2841.26,3228.07,600.20,602.19,59.96,0000 0000 0000 0000 000000
2017-10-07 11:48:11,0.00,1.09,0.00,17.06,20.72,24.06,14.18,46.42,1006.38,2057.61,3084.32,2841.00,3227.98,599.97,601.93,60.01,0000 0000 0000 0000 000000
2017-10-07 11:53:12,0.03,1.09,0.00,17.10,20.72,24.05,14.10,46.22,1006.40,2057.78,3083.99,2840.97,3227.39,600.20,602.16,60.06,0000 0000 0000 0000 000000
2017-10-07 11:58:13,0.02,1.09,0.00,17.06,20.72,24.03,14.08,46.58,1006.37,2057.68,3083.43,2840.78,3227.03,600.14,602.24,60.11,0000 0000 0000 0000 000000
2017-10-07 12:03:14,0.10,0.11,0.00,17.06,20.73,24.04,12.61,41.24,1006.38,2058.87,3486.97,3114.23,3570.40,536.46,539.30,0.01,0000 0000 0000 0000 000000
2017-10-07 12:08:16,0.09,0.00,0.00,17.11,20.72,24.01,14.12,45.80,1006.37,2058.96,3528.48,3143.20,3607.31,599.97,601.96,0.06,0000 0000 0000 0000 000000
2017-10-07 12:13:17,0.09,0.00,0.00,17.11,20.72,23.99,14.02,45.97,1006.08,2058.99,3526.90,3142.54,3606.04,600.04,601.71,0.11,0000 0000 0000 0000 000000
2017-10-07 12:18:18,0.09,0.01,0.00,17.10,20.72,24.00,14.10,46.27,1005.87,2058.98,3525.15,3141.09,3604.16,600.02,601.73,0.16,0000 0000 0000 0000 000000
2017-10-07 12:23:19,0.10,0.01,0.00,17.08,20.71,24.00,14.19,46.42,1005.78,2058.99,3523.34,3139.39,3602.03,600.11,601.77,0.21,0000 0000 0000 0000 000000
2017-10-07 12:28:21,0.10,0.01,0.00,17.03,20.70,24.00,14.16,46.45,1005.73,2058.99,3521.63,3137.73,3599.93,599.99,601.71,0.26,0000 0000 0000 0000 000000
2017-10-07 12:33:22,0.08,0.02,0.00,17.01,20.69,24.01,14.12,46.29,1005.65,2058.99,3520.24,3136.38,3598.20,600.22,602.01,0.31,0000 0000 0000 0000 000000
2017-10-07 12:38:23,0.07,0.02,0.00,17.03,20.69,23.99,14.02,46.43,1005.49,2058.99,3518.99,3135.14,3596.58,599.76,601.35,0.36,0000 0000 0000 0000 000000
2017-10-07 12:43:24,0.11,0.03,0.00,16.97,20.69,23.99,14.08,46.48,1005.41,2058.99,3517.11,3133.45,3594.36,600.05,601.75,0.41,0000 0000 0000 0000 000000
2017-10-07 12:48:26,0.07,0.03,0.00,16.95,20.67,23.98,14.10,46.42,1005.68,2058.99,3515.67,3132.04,3592.53,599.81,601.78,0.46,0000 0000 0000 0000 000000
2017-10-07 12:53:27,0.04,0.03,0.00,16.96,20.67,23.97,14.13,46.35,1005.85,2058.99,3514.83,3131.15,3591.49,599.81,601.86,0.51,0000 0000 0000 0000 000000